Voltar ao catálogo

COSMOS 2566

AtivoNavegaçãoLEO
NORAD 54383·PAYLOAD·🇷🇺 Russia

Lançado Nov 30, 2022 de Plesetsk Cosmodrome

Loading…

Próximas Passagens (próximas 24 horas)

TLE

AtualizadoSource: Space-Track

Época: Sep 14, 2026, 05:53 UTC

1 54383U 22163C   26257.24539101 -.00000018  00000-0  40916-4 0  9998
2 54383  67.1410 245.2152 0009020 329.0407  31.0145 13.97721990193017

Acompanhe COSMOS 2566 em tempo real com AllMySat

Download on the App Store